,,Stat5,,Stat1,,Stat2,,Stat3,,Stat4,,Wind1,,Wind1,
time,status,PA1M_AVG,status,PR1M_SUM,status,RH1M_AVG,status,SR1M_AVG,status,TA1M_AVG,status,W1dAve1m,status,W1sAve1m,
2001-03-29, 00:00:00,VALID,918.091,VALID,0,VALID,92.0273,VALID,0.0679233,VALID,19.7082,VALID,101,VALID,0,
2001-03-29, 00:01:00,VALID,918.062,VALID,0,VALID,92.0133,VALID,0.0509425,VALID,19.7278,VALID,101,VALID,0,
2001-03-29, 00:02:00,VALID,918.065,VALID,0,VALID,92.0871,VALID,0.0509425,VALID,19.7437,VALID,101,VALID,0,
2001-03-29, 00:03:00,VALID,918.043,VALID,0,VALID,91.951,VALID,0.101885,VALID,19.7862,VALID,101,VALID,0,
2001-03-29, 00:04:00,VALID,918.044,VALID,0,VALID,91.7679,VALID,0.0679233,VALID,19.7892,VALID,101,VALID,0,
2001-03-29, 00:05:00,VALID,918.033,VALID,0,VALID,91.7564,VALID,0.0509425,VALID,19.815,VALID,102,VALID,0.032728,
2001-03-29, 00:06:00,VALID,918.006,VALID,0,VALID,91.8277,VALID,0.0849042,VALID,19.8215,VALID,107,VALID,0.252757,
2001-03-29, 00:07:00,VALID,917.998,VALID,0,VALID,91.9574,VALID,0.0849042,VALID,19.8048,VALID,107,VALID,0.194257,
2001-03-29, 00:08:00,VALID,917.983,VALID,0,VALID,92.1316,VALID,0.101885,VALID,19.779,VALID,107,VALID,0.0496962,
2001-03-29, 00:09:00,VALID,917.959,VALID,0,VALID,92.0184,VALID,0.101885,VALID,19.7695,VALID,107,VALID,0.201014,
2001-03-29, 00:10:00,VALID,917.919,VALID,0,VALID,91.8963,VALID,0.101885,VALID,19.7857,VALID,107,VALID,0.0857264,
2001-03-29, 00:11:00,VALID,917.909,VALID,0,VALID,91.9548,VALID,0.101885,VALID,19.7984,VALID,107,VALID,0,
2001-03-29, 00:12:00,VALID,917.876,VALID,0,VALID,91.9218,VALID,0.0849042,VALID,19.7981,VALID,107,VALID,0,
2001-03-29, 00:13:00,VALID,917.85,VALID,0,VALID,91.9396,VALID,0.0849042,VALID,19.8018,VALID,107,VALID,0,
2001-03-29, 00:14:00,VALID,917.821,VALID,0,VALID,92.0553,VALID,0.0679233,VALID,19.779,VALID,107,VALID,0.0493421,
2001-03-29, 00:15:00,VALID,917.806,VALID,0,VALID,92.3198,VALID,0.0679233,VALID,19.7599,VALID,107,VALID,0.201172,
2001-03-29, 00:16:00,VALID,917.798,VALID,0,VALID,92.3897,VALID,0.101885,VALID,19.7472,VALID,107,VALID,0.0911458,
2001-03-29, 00:17:00,VALID,917.799,VALID,0,VALID,92.3032,VALID,0.0849042,VALID,19.7377,VALID,107,VALID,0.0421875,
2001-03-29, 00:18:00,VALID,917.806,VALID,0,VALID,92.3719,VALID,0.0339617,VALID,19.7372,VALID,107,VALID,0,
2001-03-29, 00:19:00,VALID,917.777,VALID,0,VALID,92.3058,VALID,0.0509425,VALID,19.7539,VALID,107,VALID,0.000976563,
2001-03-29, 00:20:00,VALID,917.77,VALID,0,VALID,92.2943,VALID,0.101885,VALID,19.7566,VALID,107,VALID,0,
2001-03-29, 00:21:00,VALID,917.746,VALID,0,VALID,92.2803,VALID,0.101885,VALID,19.7628,VALID,107,VALID,0,
2001-03-29, 00:22:00,VALID,917.748,VALID,0,VALID,92.3439,VALID,-0.0169808,VALID,19.7681,VALID,107,VALID,0.0692845,
2001-03-29, 00:23:00,VALID,917.727,VALID,0,VALID,92.4736,VALID,-0.0339617,VALID,19.7683,VALID,107,VALID,0.244531,
2001-03-29, 00:24:00,VALID,917.703,VALID,0,VALID,92.5715,VALID,0,VALID,19.742,VALID,107,VALID,0,
2001-03-29, 00:25:00,VALID,917.677,VALID,0,VALID,92.6262,VALID,-0.0509425,VALID,19.6933,VALID,104,VALID,0.374609,
2001-03-29, 00:26:00,VALID,917.637,VALID,0,VALID,92.8894,VALID,-0.0169808,VALID,19.6776,VALID,101,VALID,0.644942,
2001-03-29, 00:27:00,VALID,917.632,VALID,0,VALID,93.1107,VALID,-0.0169808,VALID,19.6615,VALID,88,VALID,0.501172,
2001-03-29, 00:28:00,VALID,917.621,VALID,0,VALID,93.3256,VALID,-0.0339617,VALID,19.658,VALID,91,VALID,0.680489,
2001-03-29, 00:29:00,VALID,917.619,VALID,0,VALID,93.3803,VALID,0,VALID,19.6679,VALID,107,VALID,0.132813,
2001-03-29, 00:30:00,VALID,917.614,VALID,0,VALID,93.4693,VALID,0,VALID,19.6741,VALID,125,VALID,0.446957,
2001-03-29, 00:31:00,VALID,917.634,VALID,0,VALID,93.4032,VALID,-0.0169808,VALID,19.6808,VALID,110,VALID,0.120898,
2001-03-29, 00:32:00,VALID,917.642,VALID,0,VALID,93.3994,VALID,-0.0679233,VALID,19.6905,VALID,155,VALID,0.0234375,
2001-03-29, 00:33:00,VALID,917.642,VALID,0,VALID,93.3205,VALID,-0.0509425,VALID,19.6935,VALID,123,VALID,0.26875,
2001-03-29, 00:34:00,VALID,917.646,VALID,0,VALID,93.3549,VALID,0,VALID,19.697,VALID,105,VALID,0.308594,
2001-03-29, 00:35:00,VALID,917.621,VALID,0,VALID,93.3765,VALID,0,VALID,19.7067,VALID,110,VALID,0.343164,
2001-03-29, 00:36:00,VALID,917.6,VALID,0,VALID,93.2671,VALID,-0.0169808,VALID,19.6736,VALID,104,VALID,0.299679,
2001-03-29, 00:37:00,VALID,917.582,VALID,0,VALID,93.4108,VALID,-0.0849042,VALID,19.6744,VALID,227,VALID,0.0988281,
2001-03-29, 00:38:00,VALID,917.587,VALID,0,VALID,93.5583,VALID,-0.0849042,VALID,19.6711,VALID,255,VALID,0.360609,
2001-03-29, 00:39:00,VALID,917.607,VALID,0,VALID,93.7058,VALID,-0.101885,VALID,19.6848,VALID,273,VALID,0.568555,
2001-03-29, 00:40:00,VALID,917.587,VALID,0,VALID,93.7897,VALID,-0.0849042,VALID,19.6938,VALID,300,VALID,0.301482,
2001-03-29, 00:41:00,VALID,917.599,VALID,0,VALID,93.4782,VALID,-0.0849042,VALID,19.7074,VALID,323,VALID,0.00859375,
2001-03-29, 00:42:00,VALID,917.582,VALID,0,VALID,93.4515,VALID,-0.101885,VALID,19.6771,VALID,323,VALID,0.000822368,
2001-03-29, 00:43:00,VALID,917.583,VALID,0,VALID,93.4718,VALID,-0.101885,VALID,19.6714,VALID,33,VALID,0.25918,
2001-03-29, 00:44:00,VALID,917.555,VALID,0,VALID,93.7707,VALID,-0.101885,VALID,19.6744,VALID,86,VALID,0.994591,
2001-03-29, 00:45:00,VALID,917.537,VALID,0,VALID,94.0021,VALID,-0.101885,VALID,19.6617,VALID,90,VALID,0.867578,
2001-03-29, 00:46:00,VALID,917.498,VALID,0,VALID,94.2768,VALID,-0.101885,VALID,19.6458,VALID,94,VALID,1.5148,
2001-03-29, 00:47:00,VALID,917.44,VALID,0,VALID,94.4624,VALID,-0.101885,VALID,19.6361,VALID,97,VALID,1.02813,
2001-03-29, 00:48:00,VALID,917.388,VALID,0,VALID,94.6315,VALID,-0.101885,VALID,19.6003,VALID,100,VALID,1.35697,
2001-03-29, 00:49:00,VALID,917.32,VALID,0,VALID,94.8108,VALID,-0.135847,VALID,19.5874,VALID,88,VALID,1.5293,
2001-03-29, 00:50:00,VALID,917.272,VALID,0,VALID,95.0474,VALID,-0.101885,VALID,19.5807,VALID,95,VALID,0.938939,
2001-03-29, 00:51:00,VALID,917.264,VALID,0,VALID,95.1771,VALID,-0.101885,VALID,19.5807,VALID,101,VALID,1.15449,
2001-03-29, 00:52:00,VALID,917.237,VALID,0,VALID,95.2495,VALID,0,VALID,19.5991,VALID,90,VALID,1.13121,
2001-03-29, 00:53:00,VALID,917.211,VALID,0,VALID,95.3119,VALID,0,VALID,19.6147,VALID,98,VALID,0.979297,
2001-03-29, 00:54:00,VALID,917.229,VALID,0,VALID,95.2801,VALID,0,VALID,19.6249,VALID,91,VALID,0.935238,
2001-03-29, 00:55:00,VALID,917.228,VALID,0,VALID,95.2966,VALID,0,VALID,19.6371,VALID,124,VALID,0.570898,
2001-03-29, 00:56:00,VALID,917.244,VALID,0,VALID,95.2775,VALID,0.0169808,VALID,19.6602,VALID,144,VALID,0.222556,
2001-03-29, 00:57:00,VALID,917.26,VALID,0,VALID,95.186,VALID,0,VALID,19.6597,VALID,115,VALID,0.253711,
2001-03-29, 00:58:00,VALID,917.279,VALID,0,VALID,95.1999,VALID,0.0339617,VALID,19.6726,VALID,119,VALID,0.799959,
2001-03-29, 00:59:00,VALID,917.258,VALID,0,VALID,95.0003,VALID,0,VALID,19.6796,VALID,113,VALID,0.336719,
2001-03-29, 01:00:00,VALID,917.269,VALID,0,VALID,95.0028,VALID,0,VALID,19.6697,VALID,151,VALID,0.061899,
2001-03-29, 01:01:00,VALID,917.244,VALID,0,VALID,95.0766,VALID,0.0169808,VALID,19.6702,VALID,120,VALID,0.633398,
2001-03-29, 01:02:00,VALID,917.226,VALID,0,VALID,95.1236,VALID,0.0339617,VALID,19.6468,VALID,75,VALID,0.816406,
2001-03-29, 01:03:00,VALID,917.2,VALID,0,VALID,95.2877,VALID,0.0339617,VALID,19.6634,VALID,307,VALID,0.352148,
2001-03-29, 01:04:00,VALID,917.199,VALID,0,VALID,95.2483,VALID,0,VALID,19.6602,VALID,75,VALID,0.183093,
2001-03-29, 01:05:00,VALID,917.179,VALID,0,VALID,95.1809,VALID,0,VALID,19.6473,VALID,134,VALID,0.112891,
2001-03-29, 01:06:00,VALID,917.143,VALID,0,VALID,95.2267,VALID,0,VALID,19.651,VALID,96,VALID,0.988076,
2001-03-29, 01:07:00,VALID,917.1,VALID,0,VALID,95.2203,VALID,0.0169808,VALID,19.6118,VALID,95,VALID,1.24902,
2001-03-29, 01:08:00,VALID,917.073,VALID,0,VALID,95.5051,VALID,0,VALID,19.5733,VALID,92,VALID,1.16366,
2001-03-29, 01:09:00,VALID,917.04,VALID,0,VALID,95.865,VALID,-0.0169808,VALID,19.58,VALID,97,VALID,1.44785,
2001-03-29, 01:10:00,VALID,917.024,VALID,0,VALID,95.9464,VALID,0,VALID,19.5834,VALID,95,VALID,0.696546,
2001-03-29, 01:11:00,VALID,917.018,VALID,0,VALID,96.1041,VALID,0,VALID,19.5959,VALID,70,VALID,0.153516,
2001-03-29, 01:12:00,VALID,917.046,VALID,0,VALID,96.0443,VALID,-0.0169808,VALID,19.6123,VALID,105,VALID,0.452925,
2001-03-29, 01:13:00,VALID,917.034,VALID,0,VALID,96.0646,VALID,-0.0169808,VALID,19.6028,VALID,101,VALID,0.8875,
2001-03-29, 01:14:00,VALID,917.031,VALID,0,VALID,96.0557,VALID,0,VALID,19.6123,VALID,132,VALID,0.629112,
2001-03-29, 01:15:00,VALID,917.012,VALID,0,VALID,96.0659,VALID,0,VALID,19.5991,VALID,97,VALID,0.991016,
2001-03-29, 01:16:00,VALID,916.98,VALID,0,VALID,96.2312,VALID,-0.0169808,VALID,19.619,VALID,71,VALID,1.05569,
2001-03-29, 01:17:00,VALID,916.983,VALID,0,VALID,96.2757,VALID,0,VALID,19.612,VALID,97,VALID,1.14043,
2001-03-29, 01:18:00,VALID,916.973,VALID,0,VALID,96.277,VALID,-0.0169808,VALID,19.6187,VALID,91,VALID,0.833882,
2001-03-29, 01:19:00,VALID,916.952,VALID,0,VALID,96.249,VALID,0,VALID,19.6123,VALID,91,VALID,1.04473,
2001-03-29, 01:20:00,VALID,916.934,VALID,0,VALID,96.2694,VALID,0,VALID,19.6085,VALID,102,VALID,0.94972,
2001-03-29, 01:21:00,VALID,916.913,VALID,0,VALID,96.2325,VALID,0,VALID,19.6152,VALID,93,VALID,0.882813,
2001-03-29, 01:22:00,VALID,916.931,VALID,0,VALID,96.2236,VALID,0,VALID,19.609,VALID,96,VALID,1.044,
2001-03-29, 01:23:00,VALID,916.917,VALID,0,VALID,96.2439,VALID,0,VALID,19.5991,VALID,101,VALID,0.920313,
2001-03-29, 01:24:00,VALID,916.929,VALID,0,VALID,96.2401,VALID,0,VALID,19.5993,VALID,95,VALID,1.01663,
2001-03-29, 01:25:00,VALID,916.925,VALID,0,VALID,96.2605,VALID,0,VALID,19.5934,VALID,95,VALID,1.46328,
2001-03-29, 01:26:00,VALID,916.93,VALID,0,VALID,96.4143,VALID,-0.0169808,VALID,19.6063,VALID,98,VALID,0.90111,
2001-03-29, 01:27:00,VALID,916.948,VALID,0,VALID,96.366,VALID,0,VALID,19.6152,VALID,97,VALID,0.891992,
2001-03-29, 01:28:00,VALID,916.943,VALID,0,VALID,96.2541,VALID,0,VALID,19.5827,VALID,96,VALID,0.592348,
2001-03-29, 01:29:00,VALID,916.926,VALID,0,VALID,96.3164,VALID,0.0169808,VALID,19.5896,VALID,59,VALID,0.630859,
2001-03-29, 01:30:00,VALID,916.924,VALID,0,VALID,96.2719,VALID,0,VALID,19.576,VALID,103,VALID,0.875,
2001-03-29, 01:31:00,VALID,916.918,VALID,0,VALID,96.3253,VALID,0,VALID,19.5703,VALID,95,VALID,0.688867,
2001-03-29, 01:32:00,VALID,916.915,VALID,0,VALID,96.3266,VALID,-0.0169808,VALID,19.5805,VALID,99,VALID,0.251803,
2001-03-29, 01:33:00,VALID,916.915,VALID,0,VALID,96.2528,VALID,0,VALID,19.5864,VALID,119,VALID,0.122852,
2001-03-29, 01:34:00,VALID,916.911,VALID,0,VALID,96.1816,VALID,0,VALID,19.573,VALID,117,VALID,0.260074,
2001-03-29, 01:35:00,VALID,916.913,VALID,0,VALID,96.1587,VALID,0,VALID,19.5829,VALID,106,VALID,0.231055,
2001-03-29, 01:36:00,VALID,916.888,VALID,0,VALID,96.1435,VALID,0,VALID,19.58,VALID,91,VALID,0.455929,
2001-03-29, 01:37:00,VALID,916.881,VALID,0,VALID,96.1753,VALID,-0.0849042,VALID,19.5623,VALID,107,VALID,0.580273,
2001-03-29, 01:38:00,VALID,916.862,VALID,0,VALID,96.174,VALID,-0.101885,VALID,19.5486,VALID,99,VALID,0.521382,
2001-03-29, 01:39:00,VALID,916.865,VALID,0,VALID,96.2465,VALID,-0.0509425,VALID,19.5524,VALID,103,VALID,0.566992,
2001-03-29, 01:40:00,VALID,916.837,VALID,0,VALID,96.2706,VALID,-0.0849042,VALID,19.5422,VALID,89,VALID,0.623798,
2001-03-29, 01:41:00,VALID,916.841,VALID,0,VALID,96.1626,VALID,-0.0849042,VALID,19.5489,VALID,58,VALID,0.544922,
2001-03-29, 01:42:00,VALID,916.85,VALID,0,VALID,96.1142,VALID,-0.0849042,VALID,19.5906,VALID,136,VALID,0.383018,
2001-03-29, 01:43:00,VALID,916.845,VALID,0,VALID,95.8459,VALID,-0.0849042,VALID,19.5877,VALID,70,VALID,0.272852,
2001-03-29, 01:44:00,VALID,916.846,VALID,0,VALID,95.9438,VALID,-0.101885,VALID,19.5814,VALID,136,VALID,0.297877,
2001-03-29, 01:45:00,VALID,916.839,VALID,0,VALID,95.954,VALID,-0.0849042,VALID,19.5777,VALID,126,VALID,0.301562,
2001-03-29, 01:46:00,VALID,916.86,VALID,0,VALID,95.9133,VALID,-0.0679233,VALID,19.5949,VALID,128,VALID,0.00493421,
2001-03-29, 01:47:00,VALID,916.858,VALID,0,VALID,95.8586,VALID,-0.0509425,VALID,19.5973,VALID,194,VALID,0.00078125,
2001-03-29, 01:48:00,VALID,916.852,VALID,0,VALID,95.79,VALID,-0.0849042,VALID,19.5879,VALID,261,VALID,0.196715,
2001-03-29, 01:49:00,VALID,916.864,VALID,0,VALID,95.865,VALID,-0.101885,VALID,19.6006,VALID,219,VALID,0.416466,
2001-03-29, 01:50:00,VALID,916.869,VALID,0,VALID,95.6806,VALID,-0.0849042,VALID,19.5973,VALID,273,VALID,0.389597,
2001-03-29, 01:51:00,VALID,916.839,VALID,0,VALID,95.6145,VALID,-0.101885,VALID,19.5976,VALID,211,VALID,0.078125,
2001-03-29, 01:52:00,VALID,916.789,VALID,0,VALID,95.5458,VALID,0.0169808,VALID,19.6031,VALID,97,VALID,0.430288,
2001-03-29, 01:53:00,VALID,916.748,VALID,0,VALID,95.4848,VALID,0.0509425,VALID,19.5934,VALID,85,VALID,0.301953,
2001-03-29, 01:54:00,VALID,916.742,VALID,0,VALID,95.5102,VALID,0.0169808,VALID,19.577,VALID,177,VALID,0.0875822,
2001-03-29, 01:55:00,VALID,916.702,VALID,0,VALID,95.5318,VALID,0.0339617,VALID,19.5733,VALID,99,VALID,0.682227,
2001-03-29, 01:56:00,VALID,916.693,VALID,0,VALID,95.3233,VALID,0.0339617,VALID,19.5506,VALID,98,VALID,0.635016,
2001-03-29, 01:57:00,VALID,916.648,VALID,0,VALID,95.4161,VALID,0.0339617,VALID,19.5154,VALID,89,VALID,0.525,
2001-03-29, 01:58:00,VALID,916.63,VALID,0,VALID,95.6832,VALID,0.0169808,VALID,19.496,VALID,92,VALID,0.616776,
2001-03-29, 01:59:00,VALID,916.591,VALID,0,VALID,95.8828,VALID,0.0339617,VALID,19.4701,VALID,94,VALID,0.638281,
2001-03-29, 02:00:00,VALID,916.548,VALID,0,VALID,95.9667,VALID,0.0169808,VALID,19.4505,VALID,107,VALID,0.716747,
2001-03-29, 02:01:00,VALID,916.528,VALID,0,VALID,96.0049,VALID,0,VALID,19.4187,VALID,93,VALID,0.84668,
2001-03-29, 02:02:00,VALID,916.502,VALID,0,VALID,96.1409,VALID,0,VALID,19.4157,VALID,102,VALID,0.733553,
2001-03-29, 02:03:00,VALID,916.501,VALID,0,VALID,96.1244,VALID,0.0339617,VALID,19.3958,VALID,106,VALID,0.288086,
2001-03-29, 02:04:00,VALID,916.499,VALID,0,VALID,96.2198,VALID,0,VALID,19.376,VALID,92,VALID,0.669071,
2001-03-29, 02:05:00,VALID,916.473,VALID,0,VALID,96.3571,VALID,0.0339617,VALID,19.3762,VALID,112,VALID,0.532422,
2001-03-29, 02:06:00,VALID,916.438,VALID,0,VALID,96.3724,VALID,0.0169808,VALID,19.3767,VALID,96,VALID,0.718956,
2001-03-29, 02:07:00,VALID,916.409,VALID,0,VALID,96.4105,VALID,0.0339617,VALID,19.3638,VALID,88,VALID,0.316992,
2001-03-29, 02:08:00,VALID,916.388,VALID,0,VALID,96.441,VALID,0,VALID,19.3506,VALID,106,VALID,0.379407,
2001-03-29, 02:09:00,VALID,916.356,VALID,0,VALID,96.5796,VALID,0.0169808,VALID,19.3509,VALID,84,VALID,0.574023,
2001-03-29, 02:10:00,VALID,916.347,VALID,0,VALID,96.6661,VALID,0.0169808,VALID,19.3409,VALID,80,VALID,0.494243,
2001-03-29, 02:11:00,VALID,916.314,VALID,0,VALID,96.7246,VALID,0,VALID,19.3347,VALID,133,VALID,0.154102,
2001-03-29, 02:12:00,VALID,916.287,VALID,0,VALID,96.7157,VALID,0.0169808,VALID,19.3178,VALID,102,VALID,0.508213,
2001-03-29, 02:13:00,VALID,916.26,VALID,0,VALID,96.7208,VALID,0,VALID,19.3218,VALID,110,VALID,0.308203,
2001-03-29, 02:14:00,VALID,916.218,VALID,0,VALID,96.731,VALID,0.0169808,VALID,19.3188,VALID,85,VALID,0.700658,
2001-03-29, 02:15:00,VALID,916.18,VALID,0,VALID,96.7831,VALID,0,VALID,19.3285,VALID,80,VALID,0.408008,
2001-03-29, 02:16:00,VALID,916.141,VALID,0,VALID,96.8263,VALID,0,VALID,19.325,VALID,90,VALID,0.8127,
2001-03-29, 02:17:00,VALID,916.109,VALID,0,VALID,96.7869,VALID,0,VALID,19.3188,VALID,90,VALID,0.716406,
2001-03-29, 02:18:00,VALID,916.103,VALID,0,VALID,96.7793,VALID,0,VALID,19.2927,VALID,90,VALID,0.820724,
2001-03-29, 02:19:00,VALID,916.101,VALID,0,VALID,96.7933,VALID,0.0169808,VALID,19.286,VALID,91,VALID,0.307617,
2001-03-29, 02:20:00,VALID,916.09,VALID,0,VALID,96.8721,VALID,0.0169808,VALID,19.293,VALID,103,VALID,0.845152,
2001-03-29, 02:21:00,VALID,916.073,VALID,0,VALID,96.9471,VALID,0.0169808,VALID,19.3024,VALID,100,VALID,1.05723,
2001-03-29, 02:22:00,VALID,916.056,VALID,0,VALID,96.9865,VALID,-0.0849042,VALID,19.2847,VALID,98,VALID,0.754317,
2001-03-29, 02:23:00,VALID,916.029,VALID,0,VALID,96.9878,VALID,-0.101885,VALID,19.2942,VALID,111,VALID,0.512695,
2001-03-29, 02:24:00,VALID,916.047,VALID,0,VALID,97.0183,VALID,-0.0679233,VALID,19.2912,VALID,97,VALID,0.257011,
2001-03-29, 02:25:00,VALID,916.058,VALID,0,VALID,96.9878,VALID,-0.0849042,VALID,19.2942,VALID,85,VALID,1.01211,
2001-03-29, 02:26:00,VALID,916.08,VALID,0,VALID,96.895,VALID,-0.101885,VALID,19.2713,VALID,95,VALID,0.829153,
2001-03-29, 02:27:01,VALID,916.086,VALID,0,VALID,96.9433,VALID,-0.0679233,VALID,19.2549,VALID,116,VALID,0.301172,
2001-03-29, 02:28:00,VALID,916.103,VALID,0,VALID,96.9929,VALID,-0.0339617,VALID,19.2783,VALID,130,VALID,0.517829,
2001-03-29, 02:29:00,VALID,916.071,VALID,0,VALID,97.0285,VALID,-0.0849042,VALID,19.284,VALID,95,VALID,0.958398,
2001-03-29, 02:30:00,VALID,916.06,VALID,0,VALID,96.9382,VALID,-0.0679233,VALID,19.2877,VALID,83,VALID,0.945929,
2001-03-29, 02:31:00,VALID,916.066,VALID,0,VALID,96.839,VALID,-0.0509425,VALID,19.2713,VALID,95,VALID,0.262695,
2001-03-29, 02:32:00,VALID,916.072,VALID,0,VALID,96.8467,VALID,-0.0679233,VALID,19.2616,VALID,131,VALID,0.107973,
2001-03-29, 02:33:01,VALID,916.072,VALID,0,VALID,96.8225,VALID,-0.0169808,VALID,19.2517,VALID,109,VALID,0.238867,
2001-03-29, 02:34:00,VALID,916.032,VALID,0,VALID,96.764,VALID,-0.0509425,VALID,19.2231,VALID,80,VALID,0.270354,
2001-03-29, 02:35:00,VALID,916.016,VALID,0,VALID,96.834,VALID,-0.0169808,VALID,19.2065,VALID,78,VALID,0.0113281,
2001-03-29, 02:36:00,VALID,916.032,VALID,0,VALID,96.9993,VALID,-0.0339617,VALID,19.2003,VALID,97,VALID,0.399639,
2001-03-29, 02:37:00,VALID,916.028,VALID,0,VALID,97.1608,VALID,-0.0509425,VALID,19.2,VALID,102,VALID,0.31543,
2001-03-29, 02:38:00,VALID,915.997,VALID,0,VALID,97.0883,VALID,-0.0849042,VALID,19.1906,VALID,91,VALID,0.760074,
2001-03-29, 02:39:01,VALID,915.993,VALID,0,VALID,96.9955,VALID,-0.0339617,VALID,19.1585,VALID,87,VALID,0.588477,
2001-03-29, 02:40:00,VALID,915.977,VALID,0,VALID,97.3045,VALID,-0.101885,VALID,19.1714,VALID,98,VALID,0.951322,
2001-03-29, 02:41:00,VALID,915.966,VALID,0,VALID,97.3986,VALID,-0.0849042,VALID,19.1906,VALID,103,VALID,0.412695,
2001-03-29, 02:42:00,VALID,915.947,VALID,0,VALID,97.3032,VALID,-0.101885,VALID,19.1906,VALID,97,VALID,0.314556,
2001-03-29, 02:43:00,VALID,915.924,VALID,0,VALID,97.3083,VALID,-0.101885,VALID,19.195,VALID,68,VALID,0.266992,
2001-03-29, 02:44:00,VALID,915.911,VALID,0,VALID,97.4532,VALID,-0.0849042,VALID,19.2167,VALID,331,VALID,0.0839343,
2001-03-29, 02:45:01,VALID,915.914,VALID,0,VALID,97.4469,VALID,-0.0509425,VALID,19.2326,VALID,86,VALID,0.402148,
2001-03-29, 02:46:00,VALID,915.912,VALID,0,VALID,97.2421,VALID,-0.0679233,VALID,19.2229,VALID,102,VALID,0.0651727,
2001-03-29, 02:47:00,VALID,915.903,VALID,0,VALID,97.1684,VALID,-0.0509425,VALID,19.21,VALID,95,VALID,0.729492,
2001-03-29, 02:48:00,VALID,915.888,VALID,0,VALID,97.1697,VALID,-0.0849042,VALID,19.207,VALID,90,VALID,0.772035,
2001-03-29, 02:49:00,VALID,915.865,VALID,0,VALID,97.129,VALID,-0.0849042,VALID,19.1747,VALID,90,VALID,0.748438,
2001-03-29, 02:50:00,VALID,915.849,VALID,0,VALID,97.2015,VALID,-0.0849042,VALID,19.1583,VALID,99,VALID,0.771793,
2001-03-29, 02:51:01,VALID,915.823,VALID,0,VALID,97.5575,VALID,-0.0339617,VALID,19.1973,VALID,82,VALID,1.36523,
2001-03-29, 02:52:00,VALID,915.807,VALID,0,VALID,97.7012,VALID,0.0339617,VALID,19.2699,VALID,110,VALID,0.307091,
2001-03-29, 02:53:00,VALID,915.808,VALID,0,VALID,97.5728,VALID,0.0339617,VALID,19.2793,VALID,94,VALID,0.229687,
2001-03-29, 02:54:00,VALID,915.824,VALID,0,VALID,97.4227,VALID,0.0509425,VALID,19.2662,VALID,94,VALID,0.431949,
2001-03-29, 02:55:00,VALID,915.808,VALID,0,VALID,97.4392,VALID,0.0679233,VALID,19.2801,VALID,105,VALID,0.772266,
2001-03-29, 02:56:00,VALID,915.772,VALID,0,VALID,97.5435,VALID,0.0169808,VALID,19.2895,VALID,86,VALID,1.54407,
2001-03-29, 02:57:01,VALID,915.725,VALID,0,VALID,97.602,VALID,0.0849042,VALID,19.3216,VALID,93,VALID,1.11914,
2001-03-29, 02:58:00,VALID,915.755,VALID,0,VALID,97.4469,VALID,0.0679233,VALID,19.3017,VALID,96,VALID,0.637336,
2001-03-29, 02:59:00,VALID,915.755,VALID,0,VALID,97.4901,VALID,0.0849042,VALID,19.3151,VALID,100,VALID,1.00977,
2001-03-29, 03:00:00,VALID,915.727,VALID,0,VALID,97.5372,VALID,0.0509425,VALID,19.3149,VALID,97,VALID,1.26102,
2001-03-29, 03:01:00,VALID,915.731,VALID,0,VALID,97.5766,VALID,0.0339617,VALID,19.3146,VALID,91,VALID,1.25859,
2001-03-29, 03:02:00,VALID,915.719,VALID,0,VALID,97.6249,VALID,0.0679233,VALID,19.3606,VALID,93,VALID,1.47533,
2001-03-29, 03:03:01,VALID,915.717,VALID,0,VALID,97.5384,VALID,0.0339617,VALID,19.3737,VALID,96,VALID,0.786523,
2001-03-29, 03:04:00,VALID,915.732,VALID,0,VALID,97.5206,VALID,0.0849042,VALID,19.373,VALID,115,VALID,0.0975561,
2001-03-29, 03:05:00,VALID,915.732,VALID,0,VALID,97.4723,VALID,0.0339617,VALID,19.3933,VALID,93,VALID,0.917383,
2001-03-29, 03:06:00,VALID,915.679,VALID,0,VALID,97.4329,VALID,0.0509425,VALID,19.3663,VALID,76,VALID,0.996505,
2001-03-29, 03:07:00,VALID,915.655,VALID,0,VALID,97.4151,VALID,-0.0509425,VALID,19.362,VALID,88,VALID,0.441016,
2001-03-29, 03:08:00,VALID,915.594,VALID,0,VALID,97.4609,VALID,-0.0509425,VALID,19.372,VALID,4,VALID,0.219151,
2001-03-29, 03:09:01,VALID,915.537,VALID,0,VALID,97.4761,VALID,-0.0339617,VALID,19.362,VALID,87,VALID,0.858789,
2001-03-29, 03:10:00,VALID,915.542,VALID,0,VALID,97.4049,VALID,-0.0339617,VALID,19.3486,VALID,88,VALID,0.233141,
2001-03-29, 03:11:00,VALID,915.534,VALID,0,VALID,97.4164,VALID,-0.0509425,VALID,19.3357,VALID,98,VALID,0,
2001-03-29, 03:12:00,VALID,915.543,VALID,0,VALID,97.4265,VALID,-0.0679233,VALID,19.3332,VALID,102,VALID,0.241987,
2001-03-29, 03:13:00,VALID,915.547,VALID,0,VALID,97.3273,VALID,-0.0849042,VALID,19.3106,VALID,84,VALID,0.975586,
2001-03-29, 03:14:00,VALID,915.558,VALID,0,VALID,97.4125,VALID,-0.0849042,VALID,19.3009,VALID,85,VALID,0.764391,
2001-03-29, 03:15:01,VALID,915.59,VALID,0,VALID,97.5015,VALID,-0.0849042,VALID,19.3009,VALID,111,VALID,0.106641,
2001-03-29, 03:16:00,VALID,915.61,VALID,0,VALID,97.5333,VALID,-0.0849042,VALID,19.2972,VALID,82,VALID,1.08794,
2001-03-29, 03:17:00,VALID,915.617,VALID,0,VALID,97.6287,VALID,-0.0679233,VALID,19.3235,VALID,95,VALID,1.36602,
2001-03-29, 03:18:00,VALID,915.603,VALID,0,VALID,97.602,VALID,-0.0849042,VALID,19.3292,VALID,82,VALID,0.857319,
2001-03-29, 03:19:00,VALID,915.582,VALID,0,VALID,97.602,VALID,-0.0339617,VALID,19.3489,VALID,67,VALID,1.77891,
2001-03-29, 03:20:00,VALID,915.548,VALID,0,VALID,97.6465,VALID,0,VALID,19.3814,VALID,51,VALID,0.42508,
2001-03-29, 03:21:01,VALID,915.532,VALID,0,VALID,97.6173,VALID,-0.0679233,VALID,19.3911,VALID,14,VALID,0.138086,
2001-03-29, 03:22:00,VALID,915.526,VALID,0,VALID,97.4888,VALID,-0.0509425,VALID,19.371,VALID,298,VALID,0.602796,
2001-03-29, 03:23:00,VALID,915.526,VALID,0,VALID,97.5779,VALID,-0.0679233,VALID,19.3906,VALID,312,VALID,0.211523,
2001-03-29, 03:24:00,VALID,915.509,VALID,0,VALID,97.5753,VALID,-0.0339617,VALID,19.3908,VALID,291,VALID,0,
2001-03-29, 03:25:01,VALID,915.484,VALID,0,VALID,97.4214,VALID,-0.0169808,VALID,19.3645,VALID,157,VALID,0.249414,
2001-03-29, 03:26:00,VALID,915.474,VALID,0,VALID,97.2027,VALID,-0.0509425,VALID,19.3128,VALID,115,VALID,0.409128,
2001-03-29, 03:27:01,VALID,915.478,VALID,0,VALID,97.2091,VALID,-0.0509425,VALID,19.3011,VALID,108,VALID,0.629297,
2001-03-29, 03:28:00,VALID,915.524,VALID,0,VALID,97.2612,VALID,-0.0509425,VALID,19.2649,VALID,338,VALID,0.0779247,
2001-03-29, 03:29:01,VALID,915.529,VALID,0,VALID,97.2892,VALID,-0.0509425,VALID,19.2388,VALID,123,VALID,0.448828,
2001-03-29, 03:30:00,VALID,915.546,VALID,0,VALID,97.3184,VALID,-0.101885,VALID,19.2194,VALID,101,VALID,0.0690789,
2001-03-29, 03:31:01,VALID,915.55,VALID,0,VALID,97.3731,VALID,-0.0509425,VALID,19.2037,VALID,153,VALID,0.0800781,
2001-03-29, 03:32:00,VALID,915.569,VALID,0,VALID,97.438,VALID,-0.0339617,VALID,19.1876,VALID,256,VALID,0.499599,
2001-03-29, 03:33:01,VALID,915.59,VALID,0,VALID,97.5613,VALID,-0.0339617,VALID,19.1873,VALID,260,VALID,0.435742,